sat.trackr.live / text

‹ back to catalog

CAS500-1

NORAD 47932 · 2021-022A

PAYLOAD ACTIVE UNKNOWN

§ Identity

Operator
Country
SKOR
Launch date
2021-03-22
Launch site
TYMSC
Launch vehicle
Mass (kg)
RCS (m²)

Purposes: earth_obs

External: N2YO · Heavens-Above · Gunter

§ Orbital elements

Epoch: 2026-09-09T04:29:12.128352Z

Period
94.73 min
Inclination
97.3776°
Eccentricity
0.0005387
Mean motion
15.20155672 rev/d
Perigee alt
501.7 km
Apogee alt
509.1 km
Semi-major
6,883.5 km
B*
2.7258e-4
RAAN
145.6815°
Arg perigee
13.8314°
Mean anomaly
346.3067°
Rev number
30,352

§ Raw data

CAS500-11 47932U 21022A   26252.18694593  .00005832  00000+0  27258-3 0  99982 47932  97.3776 145.6815 0005387  13.8314 346.3067 15.20155672303525

JSON: /api/v1/satellites/47932 · /tle

For live sub-satellite position, see the globe view (requires WebGL).

§ Visibility from observer

Set your observer location to see the next 7 days of passes ≥ 10°. The values pass through the URL so the page stays shareable.

No JS? Fill the form by hand. The geolocation button needs JavaScript.

§ Radio — SatNOGS DB

ModeDescriptionDownlinkUplink
BPSK S-band telemetry 2.266 GHz

1 transmitter · refreshed weekly from db.satnogs.org